Vertical_Velocity
-1 -1 -0 -1 -2 -2 -1 0 1 1 2 0 -1 -1 -3 -2 -1 -1 -2 1 -3 -5 -1 1 -4 1 -3 -6 -5 -2 -2 -1 -2 -2 -2 -1 -4 -2 -3 -2 -3 -3 -3
-0 0 0 1 1 0 -0 -1 0 1 2 1 2 -0 -0 2 -1 -2 -2 -3 -1 -2 -2 -1 -3 1 -0 -1 -1 -3 -2 -4 1 -1 -2 -3 -2 -3 -5 -4 -4 -4 -2
1 1 0 -0 -1 2 1 1 0 -0 -1 -1 -2 0 3 2 0 -2 -1 -1 -4 -1 -2 0 0 -4 -4 -2 1 -1 -2 -0 -1 -2 -4 -2 1 1 -0 -2 -3 -3 -2
0 -1 0 2 1 -1 -1 1 2 4 4 2 3 0 -2 -2 -0 1 -3 -2 -1 -2 -2 -0 -3 1 -1 1 -0 -1 1 -3 -2 1 -0 0 1 -1 1 0 -4 -4 -4
-1 -3 -4 -4 -0 1 2 2 -0 -1 0 2 2 5 -2 -0 1 0 0 -0 -0 -4 -3 -3 0 -4 1 1 1 -0 -2 5 1 -7 -4 -2 -2 -3 -2 -3 -3 -3 -3
2 3 2 -1 -6 -5 -4 -1 -2 -2 -2 -3 -3 -1 2 1 1 -1 1 1 1 -1 -2 2 -1 3 3 0 -3 1 3 -3 -1 2 0 -1 -1 -4 -1 1 -1 1 -2
-3 -3 -1 -0 -0 -2 1 0 0 -1 1 3 -4 0 0 -2 -3 -0 2 1 -0 1 -0 -2 2 2 2 1 3 3 -1 -3 -1 -0 -2 -0 2 1 1 -1 1 1 1
-2 -6 -5 -3 -2 -3 -0 2 6 8 8 6 4 -3 -6 0 2 4 1 0 3 -0 -0 1 2 -1 -0 -4 -4 -6 -4 -7 -3 -1 1 2 1 1 3 -1 0 3 -5
3 0 1 2 4 4 5 6 4 -0 -4 -6 -2 -2 -1 -3 -0 1 -0 -2 0 1 -1 -2 3 3 -2 -2 -0 2 4 0 -0 -2 0 -2 -2 -1 -1 -1 -3 1 1
2 1 3 2 -2 -2 -4 -1 3 1 0 1 -1 5 -3 4 -5 -6 -1 4 -1 -1 -1 -2 -3 -0 -1 -2 -2 -1 -2 -1 0 -0 -1 2 -1 -3 -2 -0 -0 2 0
-0 -0 1 1 -1 -5 -3 -3 -1 1 -1 -1 -4 -3 5 0 -1 -5 -8 3 -0 11 -3 3 0 -3 0 -3 -2 -3 -0 -3 4 -1 2 3 1 3 0 3 7 2 1
-4 -2 -1 1 -0 -1 -0 0 1 -1 1 1 2 2 -3 -1 -1 -0 -1 3 -2 4 4 3 1 2 -0 -0 0 -1 -1 -4 5 0 -2 -2 -3 2 2 3 1 -0 -1
3 7 2 -0 1 3 2 1 -2 -3 -0 -4 2 1 1 -0 3 -2 -5 -1 -7 10 -6 -2 16 4 -2 -1 -2 2 2 -1 3 -3 -4 -1 -5 -5 -2 1 -1 0 2
4 5 4 6 7 7 8 6 4 1 4 1 -2 0 0 1 3 6 -0 3 -8 -3 0 3 -0 9 5 4 1 2 -1 -0 2 1 1 -1 -0 -5 -3 -1 1 -3 -2
0 -0 -2 -3 -2 -9 -5 -2 -5 -2 -4 0 5 3 -4 -1 2 6 2 3 1 -4 -7 5 -4 1 -1 -6 -1 -2 -1 -0 1 -3 -1 4 -4 -3 1 0 -2 -1 -2
1 2 2 -1 -0 2 2 3 3 7 -1 -2 -4 1 6 5 1 2 5 2 3 2 -9 6 -5 -2 1 -2 -2 -2 -6 -5 0 -4 -3 3 -1 3 1 -1 -0 -3 0
-1 -1 -1 0 1 -1 2 -0 -0 3 -3 3 1 -4 -6 7 5 4 7 6 3 7 -3 5 0 -5 -0 -2 -0 2 -1 -3 -3 3 -3 -2 1 -3 -1 -4 0 -2 -1
-3 -1 -0 1 3 2 4 1 2 0 -3 -3 6 -6 -2 3 -0 5 7 6 0 3 6 4 8 -3 -1 4 12 2 3 1 1 2 -1 -3 2 -2 -1 -1 -3 -2 -1
4 5 3 2 3 5 7 6 5 2 -2 -1 1 5 5 -4 -2 3 2 7 5 5 3 1 3 2 -4 3 0 3 1 2 2 2 0 1 -3 0 -3 -0 -2 -1 -1
2 3 3 1 1 0 5 4 5 8 10 6 -8 -1 5 2 5 -5 1 1 14 -1 0 12 4 2 -1 5 -4 0 -2 2 0 4 0 -1 -2 -3 -3 1 -3 -3 -2
-2 -2 -2 2 4 2 5 3 7 -3 2 13 4 -13 -10 2 8 6 2 4 13 5 2 -6 3 1 -3 5 -1 0 -0 1 -3 5 0 -6 -2 -2 -1 -0 -1 -2 -1
-1 0 0 -1 0 -1 9 4 9 1 -16 10 8 5 1 -4 -11 11 9 8 10 16 2 4 2 -3 1 5 -4 -2 0 2 -1 13 -4 -3 -2 0 -2 -2 -2 -0 -2
-1 0 1 -1 -4 -0 3 3 6 -0 0 -10 -13 3 2 6 -4 9 9 12 -3 7 -4 22 1 3 -7 5 2 -1 -1 0 5 -1 -6 1 -4 -1 -1 -1 -2 -1 -3
1 2 1 6 -6 3 7 3 8 -5 7 -8 -1 2 7 8 5 -6 21 7 -7 -23 -3 4 6 -1 5 3 0 0 -2 -1 4 1 -5 -3 -4 -0 -3 -2 -4 -3 -0
-1 -3 -0 -0 2 -0 9 7 2 4 -6 1 -5 7 1 7 -8 -4 16 15 3 4 8 5 -4 -1 2 5 3 -2 1 1 -4 -2 1 -2 -3 -1 -2 -2 -4 -2 -0
-6 -4 -3 0 5 -4 16 12 5 -2 -8 -9 1 -0 9 0 1 3 14 8 19 4 4 4 -5 9 1 -1 1 2 4 -4 -2 -5 4 -0 -1 -1 -2 -2 -6 -5 -3
Height
3135 3134 3133 3132 3131 3129 3128 3127 3126 3125 3124 3123 3123 3121 3120 3120 3119 3118 3117 3115 3114 3112 3111 3109 3107 3104 3103 3100 3097 3096 3093 3090 3087 3084 3082 3079 3077 3074 3072 3069 3067 3064 3061
3133 3132 3131 3129 3128 3127 3126 3124 3123 3122 3120 3120 3119 3118 3117 3116 3115 3114 3113 3111 3110 3108 3106 3104 3102 3100 3097 3096 3094 3091 3089 3086 3083 3080 3076 3074 3071 3068 3066 3063 3061 3058 3055
3130 3129 3127 3126 3125 3124 3123 3121 3120 3118 3117 3115 3115 3113 3112 3111 3110 3109 3108 3107 3105 3104 3102 3099 3097 3095 3093 3091 3089 3086 3084 3081 3078 3075 3072 3069 3066 3063 3060 3057 3054 3051 3047
3126 3125 3124 3122 3121 3120 3119 3117 3115 3114 3113 3111 3110 3109 3108 3107 3106 3105 3103 3102 3101 3098 3096 3094 3092 3091 3089 3087 3084 3081 3078 3075 3073 3070 3067 3064 3060 3057 3054 3051 3048 3044 3039
3122 3120 3120 3119 3115 3115 3114 3113 3111 3109 3108 3106 3105 3103 3102 3101 3101 3099 3097 3097 3095 3093 3090 3088 3087 3085 3083 3081 3078 3075 3072 3069 3066 3064 3062 3058 3054 3050 3046 3044 3041 3036 3032
3118 3116 3116 3115 3112 3109 3108 3107 3105 3103 3101 3100 3098 3097 3096 3095 3095 3094 3092 3091 3089 3087 3084 3082 3080 3078 3076 3074 3071 3068 3064 3062 3061 3058 3054 3051 3047 3042 3039 3035 3031 3028 3025
3113 3111 3110 3108 3106 3103 3101 3099 3098 3096 3095 3093 3090 3090 3089 3088 3087 3087 3086 3085 3083 3081 3078 3076 3073 3071 3069 3066 3065 3063 3061 3057 3054 3052 3048 3043 3039 3035 3031 3027 3023 3021 3018
3107 3105 3104 3103 3101 3098 3096 3094 3092 3090 3089 3086 3084 3082 3080 3082 3080 3080 3079 3078 3076 3075 3073 3070 3067 3065 3062 3059 3057 3055 3052 3051 3048 3044 3039 3036 3032 3027 3023 3019 3015 3012 3009
3102 3100 3099 3097 3095 3091 3090 3087 3085 3083 3081 3080 3078 3076 3073 3072 3071 3072 3071 3070 3069 3068 3066 3063 3061 3058 3055 3053 3051 3049 3046 3043 3040 3036 3032 3028 3024 3019 3015 3011 3006 3003 2999
3096 3095 3093 3091 3089 3086 3083 3080 3077 3075 3073 3072 3068 3068 3065 3067 3063 3062 3063 3063 3061 3061 3059 3056 3054 3051 3048 3046 3044 3041 3038 3036 3032 3029 3025 3020 3015 3011 3007 3002 2996 2992 2987
3090 3087 3085 3083 3082 3079 3077 3073 3070 3067 3065 3063 3061 3060 3059 3057 3056 3053 3054 3054 3053 3054 3052 3050 3046 3044 3042 3038 3035 3034 3032 3029 3025 3022 3018 3012 3007 3003 2998 2992 2985 2980 2975
3082 3081 3078 3076 3074 3071 3069 3065 3062 3059 3057 3054 3053 3050 3048 3048 3047 3046 3044 3047 3045 3045 3043 3042 3039 3037 3034 3031 3029 3027 3024 3021 3017 3013 3009 3004 3000 2995 2987 2981 2975 2969 2964
3075 3074 3071 3068 3066 3064 3061 3057 3054 3052 3049 3046 3044 3042 3040 3037 3037 3034 3034 3037 3035 3038 3035 3036 3034 3030 3027 3024 3021 3019 3016 3013 3009 3005 3000 2995 2990 2984 2977 2970 2963 2958 2952
3068 3066 3064 3061 3058 3056 3054 3050 3047 3044 3041 3037 3035 3033 3031 3029 3028 3026 3025 3025 3023 3024 3025 3027 3025 3024 3020 3017 3014 3012 3008 3006 3001 2997 2991 2985 2979 2973 2966 2959 2953 2946 2938
3062 3059 3056 3054 3051 3047 3045 3042 3039 3037 3034 3031 3028 3024 3021 3020 3019 3018 3016 3015 3013 3011 3011 3016 3015 3015 3013 3009 3007 3004 3001 2998 2993 2987 2981 2975 2969 2961 2953 2946 2939 2932 2924
3055 3052 3049 3045 3042 3039 3036 3031 3029 3027 3024 3022 3020 3017 3013 3010 3009 3008 3008 3006 3004 3003 2998 3003 3003 3004 3003 3000 2998 2995 2993 2987 2984 2978 2972 2965 2957 2949 2941 2933 2926 2919 2911
3045 3043 3040 3037 3033 3030 3027 3022 3019 3017 3014 3012 3010 3008 3005 3003 2999 2997 2997 2996 2995 2995 2990 2993 2992 2991 2991 2989 2987 2984 2981 2977 2972 2967 2959 2953 2946 2938 2931 2923 2915 2907 2900
3034 3031 3029 3026 3023 3020 3016 3012 3009 3007 3004 3001 3000 2997 2996 2993 2990 2989 2987 2986 2986 2985 2984 2983 2984 2983 2981 2980 2978 2973 2971 2967 2961 2955 2949 2943 2936 2928 2921 2913 2905 2897 2892
3023 3020 3016 3013 3011 3008 3004 3001 2998 2996 2992 2989 2989 2986 2986 2984 2981 2979 2977 2977 2977 2976 2976 2975 2974 2975 2973 2970 2967 2964 2962 2958 2952 2947 2940 2933 2926 2918 2911 2903 2895 2889 2884
3009 3007 3004 3001 2997 2994 2990 2989 2985 2982 2980 2977 2976 2975 2974 2973 2972 2970 2967 2968 2968 2967 2966 2968 2965 2965 2963 2961 2958 2956 2953 2948 2944 2939 2931 2923 2914 2907 2901 2894 2887 2882 2876
2997 2993 2990 2988 2984 2980 2978 2975 2971 2969 2966 2964 2961 2960 2961 2962 2962 2959 2956 2958 2957 2956 2956 2958 2957 2956 2955 2952 2950 2948 2944 2939 2936 2931 2923 2913 2905 2897 2892 2886 2880 2875 2868
2983 2980 2977 2973 2970 2968 2967 2963 2957 2954 2952 2949 2948 2948 2948 2949 2950 2949 2946 2946 2946 2945 2946 2946 2947 2947 2946 2944 2941 2938 2935 2932 2926 2924 2914 2906 2897 2889 2884 2878 2874 2868 2862
2968 2965 2963 2959 2955 2954 2953 2949 2945 2940 2937 2936 2935 2934 2934 2935 2937 2936 2935 2935 2934 2933 2935 2936 2937 2937 2935 2934 2932 2929 2927 2923 2918 2911 2904 2897 2888 2881 2874 2869 2866 2860 2855
2953 2949 2946 2945 2941 2939 2939 2934 2930 2927 2924 2924 2921 2921 2920 2922 2922 2924 2924 2924 2924 2923 2926 2928 2928 2929 2927 2925 2923 2920 2917 2914 2909 2902 2895 2888 2880 2874 2866 2861 2857 2852 2848
2941 2937 2934 2931 2928 2926 2926 2922 2916 2912 2911 2912 2910 2909 2908 2908 2907 2911 2912 2913 2913 2915 2916 2918 2920 2919 2918 2917 2914 2912 2908 2904 2899 2893 2887 2879 2873 2867 2861 2855 2850 2846 2841
2930 2926 2922 2919 2916 2911 2911 2908 2903 2898 2897 2898 2898 2897 2896 2895 2897 2899 2900 2903 2903 2905 2907 2908 2908 2909 2909 2908 2906 2903 2899 2894 2889 2883 2880 2872 2865 2861 2857 2850 2844 2839 2835